Total_Precipitation_Accumulation
0.11 0.23 0.40 0.47 0.75 1.32 1.36 1.12 0.69 0.45 0.45 0.53 0.52 0.52 0.66 0.81 1.10 2.03 2.05 1.77 1.18 1.06 1.30 1.30 1.28 1.12 1.00 0.97 0.99 0.97 0.92 0.88 0.95 1.00 1.05 1.12 1.22 1.19 1.16 1.29 1.46 1.58 1.62 1.67 1.78 1.83 1.76 1.55 1.29
0.13 0.22 0.34 0.44 0.95 1.51 1.32 1.02 0.58 0.46 0.39 0.47 0.57 0.51 0.70 0.79 0.79 1.27 1.64 1.46 0.92 0.78 0.93 0.94 1.02 0.96 0.82 0.71 0.75 0.87 0.84 0.87 0.96 1.08 1.20 1.30 1.44 1.44 1.41 1.44 1.48 1.56 1.55 1.56 1.64 1.61 1.47 1.33 1.19
0.12 0.16 0.28 0.42 0.91 1.10 0.92 0.69 0.40 0.36 0.29 0.34 0.48 0.43 0.65 1.01 0.90 1.13 1.30 1.10 0.78 0.68 0.75 0.86 0.80 0.71 0.69 0.63 0.63 0.77 0.88 0.93 0.93 1.04 1.18 1.35 1.61 1.65 1.67 1.70 1.74 1.69 1.57 1.49 1.47 1.43 1.25 1.12 1.03
0.08 0.13 0.21 0.33 0.59 0.63 0.49 0.44 0.32 0.31 0.28 0.28 0.40 0.56 0.88 0.91 0.85 0.99 0.98 0.87 0.62 0.57 0.61 0.64 0.72 0.69 0.65 0.65 0.65 0.71 0.82 0.90 0.94 1.00 1.16 1.36 1.64 1.80 1.88 1.82 1.80 1.71 1.50 1.40 1.33 1.26 1.08 0.97 0.93
0.05 0.11 0.21 0.28 0.35 0.44 0.40 0.35 0.29 0.30 0.27 0.33 0.44 0.79 1.24 1.12 0.82 0.80 0.80 0.73 0.58 0.52 0.59 0.61 0.67 0.68 0.66 0.64 0.71 0.75 0.75 0.86 0.88 0.88 1.02 1.26 1.48 1.77 1.80 1.73 1.65 1.51 1.41 1.36 1.29 1.16 0.99 0.95 0.95
0.04 0.07 0.17 0.19 0.25 0.31 0.32 0.27 0.27 0.24 0.27 0.40 0.57 0.87 1.24 1.21 1.03 0.99 1.00 0.86 0.79 0.61 0.53 0.62 0.70 0.70 0.66 0.61 0.67 0.70 0.71 0.75 0.83 0.87 0.96 1.14 1.31 1.46 1.50 1.46 1.38 1.30 1.32 1.31 1.26 1.14 1.03 0.95 0.96
0.03 0.05 0.10 0.11 0.17 0.22 0.25 0.22 0.22 0.23 0.32 0.49 0.67 1.00 1.23 1.40 1.26 1.11 1.24 1.31 1.10 0.84 0.68 0.65 0.61 0.57 0.59 0.63 0.65 0.68 0.72 0.80 0.87 0.92 1.02 1.19 1.22 1.28 1.25 1.28 1.26 1.26 1.26 1.27 1.16 1.01 0.91 0.85 0.89
0.02 0.05 0.08 0.07 0.10 0.18 0.17 0.17 0.18 0.23 0.37 0.46 0.62 1.01 1.31 1.24 1.26 1.28 1.46 1.59 1.49 1.12 0.94 0.79 0.74 0.73 0.63 0.61 0.73 0.78 0.85 0.95 1.04 1.08 1.18 1.34 1.34 1.30 1.32 1.27 1.26 1.27 1.32 1.28 1.13 0.91 0.80 0.80 0.87
0.03 0.04 0.05 0.05 0.07 0.12 0.10 0.15 0.19 0.17 0.23 0.40 0.58 0.86 0.96 0.91 1.05 1.20 1.43 1.63 1.79 1.56 1.20 1.02 0.91 0.93 0.88 0.75 0.78 0.94 1.02 1.12 1.20 1.36 1.51 1.69 1.68 1.50 1.59 1.48 1.53 1.47 1.48 1.42 1.28 1.12 1.02 0.96 0.94
0.02 0.02 0.03 0.03 0.04 0.05 0.08 0.13 0.18 0.16 0.36 0.62 0.75 0.85 0.77 0.90 1.01 1.22 1.38 1.50 1.67 1.75 1.33 1.21 1.05 0.94 0.93 1.04 1.31 1.39 1.20 1.34 1.59 1.83 1.97 2.21 2.15 2.02 1.69 1.82 1.95 2.01 2.12 1.99 1.84 1.77 1.47 1.23 1.13
0.01 0.02 0.02 0.03 0.02 0.03 0.08 0.09 0.14 0.18 0.51 0.97 1.12 1.13 1.05 1.00 1.13 1.39 1.62 1.68 1.57 1.64 1.42 1.34 1.34 1.32 1.19 1.32 1.52 1.63 1.62 1.79 1.93 2.00 2.11 2.28 1.99 1.90 1.91 2.05 2.28 2.40 2.44 2.28 2.32 2.32 1.99 1.90 1.88
0.01 0.01 0.01 0.02 0.02 0.03 0.07 0.09 0.13 0.21 0.51 0.80 1.07 1.05 1.18 1.14 1.23 1.47 1.80 1.98 1.98 2.10 1.88 1.72 1.73 1.66 1.56 1.52 1.68 1.79 1.80 1.86 2.00 2.10 2.03 2.13 2.25 2.30 2.38 2.58 2.51 2.58 2.70 2.96 2.61 2.72 2.56 2.39 2.29
0.01 0.01 0.02 0.02 0.03 0.04 0.08 0.16 0.16 0.26 0.38 0.58 0.83 0.83 0.88 1.18 1.55 1.92 2.28 2.28 2.43 2.65 2.63 2.36 2.08 1.92 1.88 2.00 2.01 1.93 2.00 2.09 2.17 2.32 2.25 2.22 2.46 2.57 2.62 2.62 2.69 2.49 2.58 2.92 3.01 2.79 2.98 3.05 2.85
0.01 0.01 0.02 0.03 0.03 0.06 0.09 0.22 0.28 0.36 0.46 0.52 0.77 1.01 1.05 1.40 1.73 2.28 2.92 2.83 2.64 2.85 2.93 2.72 2.53 2.38 2.35 2.50 2.58 2.47 2.28 2.46 2.53 2.50 2.34 2.39 2.63 2.90 3.03 2.89 2.94 2.75 2.63 2.80 2.94 2.95 3.54 3.42 3.27
0.02 0.03 0.04 0.07 0.08 0.11 0.17 0.37 0.52 0.52 0.49 0.58 0.88 1.19 1.43 1.57 1.90 2.24 2.61 2.95 3.11 3.21 3.12 3.07 3.03 2.93 2.96 2.95 2.91 2.72 2.65 2.55 2.63 2.69 2.70 2.69 2.71 3.02 3.14 3.20 3.14 2.95 2.81 2.97 2.99 3.20 3.46 3.23 3.09
0.02 0.06 0.10 0.12 0.13 0.14 0.23 0.62 0.62 0.52 0.53 0.84 1.04 1.37 1.69 1.76 2.01 2.41 2.75 3.28 3.54 3.58 3.56 3.54 3.39 3.41 3.43 3.41 3.30 3.12 2.98 2.82 2.67 2.64 2.77 2.80 2.89 3.10 3.27 3.13 3.02 3.13 3.15 3.27 3.45 3.52 3.52 3.41 3.27
0.07 0.10 0.14 0.14 0.17 0.15 0.21 0.46 0.59 0.55 0.75 1.02 1.26 1.58 1.88 2.13 2.58 3.05 3.30 3.41 3.77 4.10 4.26 4.28 4.19 3.98 3.76 3.70 3.68 3.69 3.65 3.41 3.10 2.96 2.94 2.96 2.85 2.98 3.22 3.17 3.21 3.25 3.30 3.34 3.08 3.53 3.50 3.53 3.37
0.09 0.09 0.14 0.18 0.16 0.18 0.26 0.42 0.52 0.60 0.84 1.25 1.63 1.87 2.14 2.54 3.03 3.37 3.63 3.97 4.12 4.39 4.90 4.86 4.68 4.56 4.47 4.37 4.13 4.13 3.89 3.61 3.49 3.39 3.45 3.30 3.15 3.11 3.33 3.27 3.33 3.35 3.43 3.44 3.40 3.64 3.57 3.40 3.31
0.08 0.10 0.15 0.19 0.16 0.20 0.36 0.54 0.59 0.77 1.07 1.38 1.73 1.97 2.31 2.63 3.00 3.41 3.50 3.74 4.07 4.67 5.14 5.37 5.37 5.18 4.89 4.49 4.10 3.93 3.84 3.82 3.68 3.53 3.36 3.25 3.17 3.25 3.56 3.43 3.67 3.58 3.35 3.28 3.37 3.60 3.46 3.19 3.23
0.07 0.11 0.16 0.18 0.16 0.19 0.37 0.57 0.67 1.01 1.33 1.39 1.57 1.71 1.90 2.34 2.67 2.99 3.16 3.25 3.67 4.26 4.70 4.86 4.62 4.51 4.34 4.08 3.98 3.96 4.17 3.90 3.66 3.55 3.39 3.13 3.08 3.19 3.21 3.49 3.38 3.37 3.43 3.32 3.32 3.53 3.34 2.92 3.04
0.05 0.08 0.12 0.18 0.18 0.25 0.39 0.73 0.94 1.16 1.29 1.33 1.43 1.58 1.70 1.98 2.30 2.61 2.72 2.88 3.09 3.20 3.49 3.65 3.82 3.77 3.65 3.63 3.60 3.63 3.87 3.68 3.52 3.43 3.34 2.98 2.82 2.80 2.91 2.99 3.07 3.37 3.30 3.31 3.37 3.31 3.20 2.89 2.83
0.07 0.07 0.07 0.10 0.18 0.31 0.46 1.01 1.27 1.23 1.28 1.41 1.40 1.39 1.64 1.94 1.93 2.04 2.26 2.43 2.68 2.82 3.02 3.09 3.13 3.27 3.31 3.37 3.28 3.11 3.04 2.99 2.96 3.05 3.01 2.95 2.81 2.70 2.71 2.74 2.79 2.86 2.79 2.93 2.69 2.81 3.01 3.11 2.85
0.05 0.05 0.07 0.11 0.21 0.33 0.46 0.78 1.20 1.53 1.60 1.41 1.35 1.24 1.44 1.59 1.50 1.48 1.65 1.79 2.02 2.22 2.46 2.62 2.75 2.85 2.98 3.03 2.96 2.94 2.74 2.73 2.79 2.85 2.88 2.85 2.81 2.77 2.72 2.68 2.66 2.56 2.43 2.54 2.55 2.74 2.74 2.76 2.73
0.05 0.07 0.13 0.25 0.44 0.67 0.57 0.71 1.14 1.48 1.73 1.48 1.27 1.19 1.29 1.28 1.25 1.36 1.48 1.58 1.70 1.96 2.13 2.28 2.44 2.50 2.62 2.67 2.72 2.71 2.66 2.65 2.67 2.68 2.68 2.67 2.68 2.58 2.51 2.46 2.47 2.37 2.33 2.40 2.48 2.58 2.53 2.56 2.69
0.06 0.13 0.47 0.84 1.12 1.14 0.73 0.79 1.15 1.16 1.19 1.21 1.17 1.22 1.23 1.17 1.13 1.14 1.22 1.36 1.51 1.71 1.83 1.89 2.04 2.14 2.16 2.21 2.29 2.33 2.40 2.50 2.39 2.32 2.35 2.35 2.20 2.09 2.14 2.09 2.18 2.16 2.17 2.21 2.35 2.45 2.40 2.51 2.67
0.11 0.15 0.51 0.79 0.85 0.95 0.82 1.11 1.44 1.15 1.07 1.00 1.08 1.18 1.18 1.04 0.97 1.00 1.10 1.16 1.22 1.39 1.57 1.60 1.72 1.84 2.00 2.04 2.06 2.11 2.10 2.11 2.01 2.06 2.06 2.02 1.81 1.73 1.90 2.06 2.10 2.07 2.06 2.11 2.35 2.23 2.24 2.40 2.45
0.15 0.18 0.23 0.45 0.51 0.72 0.93 1.22 1.39 1.09 1.05 1.17 1.30 1.28 1.23 0.97 0.82 0.84 0.86 0.90 0.91 1.00 1.14 1.25 1.52 1.67 1.77 1.86 1.89 1.85 1.79 1.81 1.83 1.88 1.98 1.89 1.85 1.73 1.82 1.90 2.01 2.04 2.13 2.26 2.36 2.23 2.34 2.57 2.47
0.15 0.16 0.19 0.37 0.56 0.77 0.91 1.27 1.57 1.52 1.36 1.29 1.37 1.22 0.95 0.79 0.68 0.63 0.64 0.65 0.72 0.80 0.88 1.02 1.24 1.35 1.45 1.62 1.69 1.57 1.71 1.81 1.83 1.82 1.71 1.69 1.73 1.74 1.69 1.69 1.78 1.80 1.89 2.06 2.21 2.14 2.30 2.56 2.52
0.19 0.21 0.29 0.40 0.44 0.66 1.03 1.24 1.19 1.24 1.17 1.22 1.21 1.04 0.80 0.65 0.60 0.61 0.60 0.63 0.70 0.74 0.85 1.01 1.24 1.38 1.37 1.47 1.56 1.58 1.67 1.79 1.82 1.73 1.63 1.62 1.64 1.69 1.64 1.65 1.68 1.67 1.63 1.72 1.88 1.89 2.13 2.18 2.19
0.17 0.19 0.28 0.42 0.42 0.46 0.71 0.93 0.67 0.73 0.75 0.82 0.88 0.77 0.69 0.66 0.62 0.68 0.73 0.73 0.74 0.82 0.92 1.04 1.19 1.36 1.41 1.52 1.68 1.82 1.78 1.72 1.73 1.72 1.63 1.55 1.49 1.56 1.64 1.71 1.63 1.51 1.54 1.67 1.69 1.77 2.01 2.09 2.08